| time (UTC) | temp C | wind direction | speed KPH | gust KPH | rain 1hr cm | rain 24hr cm | rain mn cm | humidity % | barometer mb |
| 20260502123054 | 11 | 11 | 9.7 | 19.3 | 0.00 | 4.11 | 0.00 | 94 | 1019.4 |
| 20260502121540 | 10 | 338 | 12.9 | 20.9 | 0.00 | 4.11 | 0.00 | 93 | 1019.0 |
| 20260502114535 | 10 | 5 | 12.9 | 20.9 | 0.00 | 4.80 | 0.00 | 94 | 1018.5 |
| 20260502113037 | 10 | 5 | 11.3 | 17.7 | 0.00 | 4.80 | 0.00 | 94 | 1018.5 |
| 20260502111544 | 10 | 355 | 12.9 | 20.9 | 0.00 | 4.80 | 0.00 | 94 | 1018.1 |
| 20260502110029 | 11 | 344 | 12.9 | 22.5 | 0.00 | 4.80 | 0.00 | 94 | 1017.9 |
| 20260502104526 | 11 | 355 | 12.9 | 19.3 | 0.00 | 6.32 | 0.00 | 94 | 1017.8 |
| 20260502103024 | 11 | 336 | 11.3 | 17.7 | 0.00 | 6.32 | 0.00 | 93 | 1017.8 |
| 20260502101522 | 11 | 349 | 8.0 | 14.5 | 0.00 | 6.32 | 0.00 | 93 | 1017.6 |
| 20260502091514 | 11 | 351 | 6.4 | 14.5 | 0.00 | 7.24 | 0.00 | 93 | 1017.0 |
| 20260502070052 | 11 | 5 | 16.1 | 24.1 | 0.00 | 7.47 | 0.00 | 92 | 1016.3 |
| 20260502064550 | 12 | 355 | 14.5 | 22.5 | 0.00 | 7.62 | 0.00 | 92 | 1016.2 |
| 20260502063101 | 12 | 350 | 16.1 | 22.5 | 0.00 | 7.62 | 0.00 | 92 | 1016.0 |
| 20260502061548 | 12 | 44 | 17.7 | 29.0 | 0.00 | 7.62 | 0.00 | 91 | 1015.5 |
| 20260502060040 | 12 | 20 | 17.7 | 32.2 | 0.00 | 7.62 | 0.00 | 92 | 1015.9 |
| 20260502054537 | 12 | 5 | 17.7 | 27.4 | 0.00 | 7.65 | 0.00 | 92 | 1016.3 |
| 20260502053040 | 13 | 17 | 14.5 | 27.4 | 0.00 | 7.65 | 0.00 | 92 | 1016.3 |
| 20260502051535 | 13 | 360 | 17.7 | 30.6 | 0.00 | 7.65 | 0.00 | 92 | 1016.1 |
| 20260502050028 | 13 | 16 | 11.3 | 19.3 | 0.00 | 7.65 | 0.00 | 92 | 1016.0 |
| 20260502044526 | 13 | 5 | 11.3 | 25.7 | 0.00 | 7.67 | 7.65 | 92 | 1015.9 |
| 20260502043024 | 13 | 5 | 14.5 | 25.7 | 0.00 | 7.67 | 7.65 | 92 | 1016.1 |
| 20260502041522 | 13 | 24 | 16.1 | 32.2 | 0.00 | 7.67 | 7.65 | 92 | 1015.8 |
| 20260502040018 | 13 | 360 | 14.5 | 25.7 | 0.00 | 7.67 | 7.65 | 92 | 1015.6 |
| 20260502034516 | 13 | 23 | 17.7 | 29.0 | 0.00 | 7.72 | 7.65 | 92 | 1015.2 |
| 20260502033018 | 13 | 17 | 19.3 | 32.2 | 0.00 | 7.72 | 7.65 | 92 | 1015.2 |
| 20260502031510 | 13 | 360 | 20.9 | 29.0 | 0.00 | 7.72 | 7.65 | 92 | 1014.9 |
| 20260502030019 | 13 | 5 | 17.7 | 32.2 | 0.00 | 7.72 | 7.65 | 92 | 1014.8 |
| 20260502024506 | 13 | 350 | 20.9 | 29.0 | 0.00 | 7.72 | 7.65 | 92 | 1014.6 |
| 20260502023004 | 13 | 351 | 22.5 | 32.2 | 0.00 | 7.72 | 7.65 | 92 | 1014.6 |
| 20260502021500 | 13 | 9 | 17.7 | 27.4 | 0.00 | 7.72 | 7.65 | 92 | 1014.2 |
| 20260502020058 | 13 | 5 | 22.5 | 32.2 | 0.00 | 7.72 | 7.65 | 92 | 1013.8 |
| 20260502014555 | 13 | 9 | 24.1 | 35.4 | 0.00 | 7.72 | 7.65 | 92 | 1013.4 |
| 20260502013054 | 13 | 24 | 22.5 | 32.2 | 0.00 | 7.72 | 7.65 | 92 | 1013.1 |
| 20260502011549 | 14 | 15 | 19.3 | 29.0 | 0.00 | 7.72 | 7.65 | 92 | 1012.6 |
| 20260502010049 | 14 | 14 | 14.5 | 30.6 | 0.00 | 7.72 | 7.65 | 92 | 1012.4 |
| 20260502004545 | 14 | 16 | 24.1 | 33.8 | 0.00 | 7.72 | 7.65 | 92 | 1012.4 |
| 20260502003042 | 14 | 355 | 25.7 | 37.0 | 0.00 | 7.72 | 7.65 | 93 | 1012.1 |
| 20260502001542 | 14 | 5 | 19.3 | 30.6 | 0.00 | 7.72 | 7.65 | 93 | 1011.8 |
| 20260502000041 | 14 | 34 | 20.9 | 33.8 | 0.00 | 7.72 | 7.65 | 93 | 1011.9 |
| 20260501234540 | 14 | 12 | 24.1 | 32.2 | 0.00 | 7.72 | 7.65 | 94 | 1012.0 |
| 20260501233035 | 14 | 5 | 19.3 | 30.6 | 0.03 | 7.72 | 7.65 | 94 | 1012.0 |
| 20260501231534 | 15 | 360 | 17.7 | 29.0 | 0.03 | 7.72 | 7.65 | 94 | 1012.2 |
| 20260501230032 | 15 | 39 | 20.9 | 33.8 | 0.03 | 7.72 | 7.65 | 94 | 1011.1 |
| 20260501224543 | 15 | 5 | 20.9 | 37.0 | 0.05 | 7.72 | 7.65 | 94 | 1010.7 |
| 20260501223028 | 15 | 344 | 22.5 | 37.0 | 0.03 | 7.70 | 7.62 | 94 | 1011.0 |
| 20260501221523 | 15 | 346 | 16.1 | 29.0 | 0.05 | 7.70 | 7.62 | 94 | 1011.1 |
| 20260501220023 | 16 | 325 | 22.5 | 38.6 | 0.05 | 7.70 | 7.62 | 94 | 1010.4 |
| 20260501214520 | 16 | 335 | 24.1 | 33.8 | 0.03 | 7.67 | 7.59 | 94 | 1009.7 |
| 20260501213019 | 16 | 333 | 20.9 | 30.6 | 0.03 | 7.67 | 7.59 | 94 | 1009.7 |
| 20260501211518 | 16 | 341 | 17.7 | 25.7 | 0.00 | 7.65 | 7.57 | 94 | 1009.5 |
| 20260501210021 | 16 | 15 | 17.7 | 32.2 | 0.00 | 7.65 | 7.57 | 94 | 1008.1 |
| 20260501204517 | 16 | 26 | 14.5 | 29.0 | 0.00 | 7.65 | 7.57 | 95 | 1008.1 |
| 20260501203015 | 16 | 355 | 20.9 | 32.2 | 0.00 | 7.65 | 7.57 | 95 | 1008.5 |
| 20260501201515 | 16 | 5 | 20.9 | 37.0 | 0.03 | 7.65 | 7.57 | 95 | 1008.4 |
| 20260501200015 | 16 | 18 | 19.3 | 30.6 | 0.05 | 7.65 | 7.57 | 95 | 1008.8 |
| 20260501194514 | 16 | 13 | 20.9 | 29.0 | 0.08 | 7.65 | 7.57 | 95 | 1009.2 |
| 20260501193031 | 16 | 355 | 19.3 | 29.0 | 0.79 | 7.65 | 7.57 | 95 | 1009.6 |
| 20260501191513 | 15 | 360 | 20.9 | 29.0 | 1.02 | 7.62 | 7.54 | 95 | 1008.9 |
| 20260501190009 | 16 | 344 | 20.9 | 33.8 | 0.99 | 7.59 | 7.52 | 95 | 1010.3 |
| 20260501184508 | 16 | 348 | 24.1 | 38.6 | 0.97 | 7.57 | 7.49 | 95 | 1009.7 |
| 20260501183006 | 17 | 267 | 22.5 | 32.2 | 0.18 | 6.78 | 6.71 | 95 | 1010.9 |
| 20260501181504 | 16 | 24 | 17.7 | 30.6 | 0.00 | 6.60 | 6.53 | 95 | 1007.6 |
| 20260501180005 | 16 | 17 | 16.1 | 27.4 | 0.00 | 6.60 | 6.53 | 95 | 1007.7 |
| 20260501174502 | 16 | 41 | 16.1 | 24.1 | 0.00 | 6.60 | 6.53 | 95 | 1007.6 |
| 20260501173001 | 16 | 44 | 16.1 | 24.1 | 0.05 | 6.60 | 6.53 | 95 | 1007.5 |
| 20260501171600 | 17 | 29 | 11.3 | 25.7 | 0.08 | 6.60 | 6.53 | 95 | 1008.6 |
| 20260501164559 | 17 | 32 | 16.1 | 27.4 | 0.43 | 6.60 | 6.53 | 95 | 1008.6 |
| 20260501163058 | 16 | 50 | 19.3 | 27.4 | 0.58 | 6.58 | 6.50 | 95 | 1008.1 |
| 20260501161601 | 16 | 28 | 12.9 | 30.6 | 1.09 | 6.53 | 6.45 | 95 | 1009.6 |
| 20260501160057 | 16 | 42 | 16.1 | 25.7 | 0.91 | 6.30 | 6.22 | 95 | 1009.8 |
| 20260501154630 | 16 | 48 | 16.1 | 25.7 | 0.79 | 6.17 | 6.10 | 95 | 1009.9 |
| 20260501153055 | 16 | 30 | 11.3 | 20.9 | 0.58 | 5.94 | 5.87 | 95 | 1010.3 |
| 20260501151554 | 16 | 36 | 4.8 | 19.3 | 0.23 | 5.44 | 5.36 | 95 | 1010.5 |
| 20260501150050 | 16 | 360 | 12.9 | 19.3 | 0.81 | 5.38 | 5.31 | 95 | 1011.1 |
| 20260501144552 | 16 | 13 | 11.3 | 20.9 | 1.12 | 5.38 | 5.31 | 95 | 1010.7 |
| 20260501143104 | 16 | 38 | 14.5 | 29.0 | 1.19 | 5.36 | 5.28 | 95 | 1010.8 |